Preview of NWS' New Version of Forecast
This preview is not operational and should not be used for support decisions.

Regional Weather Roundup (RWR)

Issued by National Weather Service (NWS)

                            
000
ASUS42 KTBW 211115
RWRFL 
FLORIDA REGIONAL WEATHER ROUNDUP
NATIONAL WEATHER SERVICE TAMPA BAY RUSKIN FL
700 AM EDT SUN APR 21 2019

NOTE: "FAIR" INDICATES FEW OR NO CLOUDS BELOW 12,000 FEET WITH NO
SIGNIFICANT WEATHER AND/OR OBSTRUCTIONS TO VISIBILITY.

FLZ001>010-012>015-112-114-115-211200-
PANHANDLE FLORIDA
  
CITY           SKY/WX    TMP DP  RH WIND       PRES   REMARKS
PENSACOLA      FAIR      49  41  74 N3        30.10R                  
PENSACOLA NAS  FAIR      45  43  93 CALM      30.10R                  
MILTON NAS     FAIR      40  39  97 CALM      30.10R                  
CRESTVIEW      FAIR      37  35  92 CALM      30.12R                  
DUKE FIELD     FAIR      40  37  89 CALM      30.10R                  
VALPARAISO     CLEAR     46  37  71 CALM      30.10R                  
MARY ESTHER    FAIR      44  38  79 N6        30.09R WCI  40          
PANAMA CITY    FAIR      44  41  89 CALM      30.09R                  
TYNDALL AFB    FAIR      46  42  86 N3        30.10R                  
APALACHICOLA   FAIR      44  38  79 CALM      30.09R                  

STATION/POSITION SKY/WX   TEMP    WIND        PRES    WAVE   SWELL
                          AIR SEA DIR/SP/G            HT/PER HT/PER
                          (F)     (DEG/KT/KT) (MB)    (FT/S) (FT/S)
30.1N   87.6W                                 1019.5R   2/ 6   2/ 6
29.2N   88.2W                      30/  8/ 10 1019.7R   2/ 4   2/ 6
PANAMA CITY BEAC           54 68  340/  6/  7 1019.4R
TOWER C          NOT AVBL

$$
FLZ011-016>038-118-127-128-134-139-239-211200-
NORTH FLORIDA
  
CITY           SKY/WX    TMP DP  RH WIND       PRES   REMARKS
MARIANNA       FAIR      46  43  89 CALM      30.09                   
TALLAHASSEE    FAIR      41  39  93 CALM      30.09R                  
PERRY          FAIR      44  43  97 CALM      30.10R                  
LIVE OAK       CLEAR     43  43 100 CALM      30.08R                  
CROSS CITY     FAIR      42  41  97 CALM      30.09R                  
LAKE CITY      FAIR      43  43 100 CALM      30.08R                  
GAINESVILLE    FAIR      46  42  86 CALM      30.11R                  
PALATKA        FAIR      45  45 100 CALM      30.09R                  
MAYPORT NAS    FAIR      56  52  86 W3        30.06R                  
JACKSONVILLE   FAIR      48  45  89 W3        30.06R                  
JAX NAS        PTCLDY    52  46  80 W6        30.08R                  
JAX CECIL      CLEAR     41  41 100 CALM      30.07R                  
FERNANDINA BEA FAIR      49  47  93 CALM      30.07R                  
ST AUGUSTINE   FAIR      52  48  86 W8        30.08R                  
PALM COAST     CLEAR     48  46  93 CALM      30.07R                  

STATION/POSITION SKY/WX   TEMP    WIND        PRES    WAVE   SWELL
                          AIR SEA DIR/SP/G            HT/PER HT/PER
                          (F)     (DEG/KT/KT) (MB)    (FT/S) (FT/S)
SHELL POINT      NOT AVBL
KEATON BEACH               49      CALM  /  1 1019.2R
CEDAR KEY                  57      20/  4/  4 1019.0R
FERNANDINA                 57 69   CALM  /  2 1018.5R
30.7N   81.3W                 67                N/A     2/ 8
MAYPORT                    56 70  290/  4/  4 1018.0R
31.4N   80.9W              62 66  290/  6/ 10 1017.3R   2/ 8   2/ 8
ST AUGUSTINE               54 70  270/  6/  7 1018.4R

$$
FLZ040-043>046-052-053-057-058-063-144-211200-
INTERIOR CENTRAL FLORIDA
  
CITY           SKY/WX    TMP DP  RH WIND       PRES   REMARKS
OCALA          FAIR      47  46  97 CALM      30.09R                  
LEESBURG       FAIR      56  47  71 SW5       30.09R                  
SANFORD        FAIR      56  51  84 W5        30.07R                  
ORLANDO EXEC   FAIR      56  52  86 SW7       30.08R                  
ORLANDO INTL   FAIR      55  51  86 SW5       30.09R                  
KISSIMMEE      FAIR      53  51  93 MISG      30.10R                  
WINTER HAVEN   FAIR      58  52  80 CALM      30.10R                  
LAKELAND       CLEAR     52  48  87 CALM      30.09R                  
BARTOW         FAIR      50  48  93 CALM      30.09R                  
SEBRING        PTSUNNY   57  52  83 CALM      30.10R                  
OKEECHOBEE     FAIR      54  50  87 CALM      30.09R                  

$$
FLZ041-047-054-059-064-141-147-211200-
EAST CENTRAL FLORIDA
  
CITY           SKY/WX    TMP DP  RH WIND       PRES   REMARKS
ORMOND BEACH   CLEAR     50  50 100 CALM      30.07                   
DAYTONA BEACH  FAIR      51  50  96 W3        30.07R                  
DELAND         FAIR      54  48  82 CALM      30.07R                  
NEW SMYRNA BEA CLEAR     52  48  87 W5        30.07                   
JFK SPACE CTR  FAIR      57  52  84 CALM      30.07R                  
TITUSVILLE     CLEAR     48  46  93 SW6       30.09                   
CAPE CANAVERAL FAIR      55  49  83 W5        30.07R                  
PATRICK AFB    FAIR      60  55  83 W10       30.08R                  
MELBOURNE      FAIR      55  48  77 SW3       30.08R                  
VERO BEACH     FAIR      54  50  86 W3        30.09R                  
FT PIERCE      FAIR      52  49  89 CALM      30.09R                  
STUART         PTCLDY    57  50  77 CALM      30.10R                  

STATION/POSITION SKY/WX   TEMP    WIND        PRES    WAVE   SWELL
                          AIR SEA DIR/SP/G            HT/PER HT/PER
                          (F)     (DEG/KT/KT) (MB)    (FT/S) (FT/S)
28.5N   80.2W              66     270/ 10/ 14 1018.5R   3/ 8   2/ 8
28.9N   78.5W              71 77  260/ 14/ 21 1017.7R   6/ 7   3/ 7
TRIDENT PIER               62 76  230/  6/  7 1019.6R
28.4N   80.5W                 75                N/A     2/ 8
27.5N   80.2W                 75                N/A     2/ 9

$$
FLZ050-056-061-142-242-148-248-149-249-151-251-155-255-
160-260-211200-
WEST CENTRAL FLORIDA
  
CITY           SKY/WX    TMP DP  RH WIND       PRES   REMARKS
CRYSTAL RIVER  FAIR      48  45  87 CALM      30.09R                  
INVERNESS      FAIR      48  48 100 CALM      30.10R                  
BROOKSVILLE    FAIR      49  46  90 CALM      30.09R                  
CLEARWATER AIR FAIR      55  45  67 CALM      30.09R                  
ST PETE CLEARW FAIR      54  45  71 SW3       30.10R                  
TAMPA INTL     FAIR      60  45  57 CALM      30.10R                  
PLANT CITY     FAIR      52  50  93 MISG      30.12R                  
MACDILL AFB    FAIR      61  45  56 CALM      30.09R                  
PETER O KNIGHT CLOUDY    59  52  77 CALM      30.10R                  
ST PETERSBURG  FAIR      64  45  49 N6        30.08R                  
SARASOTA       FAIR      61  48  62 N6        30.08R                  
VENICE         MOCLDY    68  50  52 NW8G15    30.10R                  

STATION/POSITION SKY/WX   TEMP    WIND        PRES    WAVE   SWELL
                          AIR SEA DIR/SP/G            HT/PER HT/PER
                          (F)     (DEG/KT/KT) (MB)    (FT/S) (FT/S)
27.3N   84.2W                 74                N/A     7/ 8
CLEARWATER BEACH           67 71  300/ 10/ 13 1019.0R
MIDDLE TAMPA BAY                  350/ 10/ 12   N/A
VENICE                     68 75  310/ 14/ 16 1018.9R

$$
FLZ066-069-070-075>078-162-262-165-265-211200-
SOUTHWEST FLORIDA AND KEYS
  
CITY           SKY/WX    TMP DP  RH WIND       PRES   REMARKS
FT MYERS       MOCLDY    61  55  81 CALM      30.09R                  
SOUTHWEST INTL MOCLDY    59  54  83 CALM      30.09R                  
NAPLES         FAIR      62  58  86 NE5       30.08R                  
MARCO ISLAND   CLOUDY    64  56  75 N6        30.09R                  
IMMOKALEE      FAIR      55  54  94 CALM      30.08R                  
MARATHON       FAIR      72  51  47 W8        30.08R                  
KEY WEST NAS   MOCLDY    70  54  56 CALM      30.09R                  
KEY WEST INTL  MOCLDY    68  57  68 CALM      30.09R                  

STATION/POSITION SKY/WX   TEMP    WIND        PRES    WAVE   SWELL
                          AIR SEA DIR/SP/G            HT/PER HT/PER
                          (F)     (DEG/KT/KT) (MB)    (FT/S) (FT/S)
NAPLES                     66 74   60/  5/  8 1018.5R
DRY TORTUGAS               72     350/  6/  8 1019.2R
SAND KEY                   72                 1018.8R
SOMBRERO KEY               72                 1018.2R

$$
FLZ067-068-071>074-168-172>174-211200-
SOUTHEAST FLORIDA 
  
CITY           SKY/WX    TMP DP  RH WIND       PRES   REMARKS
W PALM BEACH   FAIR      59  45  59 CALM      30.09R                  
BOCA RATON     CLEAR     55  54  94 CALM      30.08                   
FT LAUDER-EXEC FAIR      60  53  77 CALM      30.08R                  
FT LAUDERDALE  FAIR      64  49  57 CALM      30.08R                  
POMPANO BEACH  FAIR      61  53  75 CALM      30.08R                  
PEMBROKE PINES FAIR      58  51  78 CALM      30.10R                  
OPA LOCKA      FAIR      59  52  77 CALM      30.09R                  
MIAMI          FAIR      61  53  75 CALM      30.09R                  
WEST KENDALL   FAIR      59  54  83 CALM      30.09R                  
HOMESTEAD      FAIR      56  55  95 CALM      30.08R                  

STATION/POSITION SKY/WX   TEMP    WIND        PRES    WAVE   SWELL
                          AIR SEA DIR/SP/G            HT/PER HT/PER
                          (F)     (DEG/KT/KT) (MB)    (FT/S) (FT/S)
PORT EVERGLADES            66     200/  2/  3 1018.5
VIRGINIA KEY               67 79  300/  1/  2 1018.0R
LAKE WORTH                 65 76  260/  3/  4 1019.6R
SETTLEMENT POINT           71     290/ 11/ 14 1018.7R

$$